Le nostre stazioni meteo in Italia

Pubblicità
Il mio iltempo24.it
Achnagart, Gran Bretagna (99191): Temperatura & dewpoint: 17.05.2017 15:00:00 - 23.05.2017 15:00:00 (BST)Achnagart, Gran Bretagna (99191): Temperatura 5cm: 17.05.2017 15:00:00 - 23.05.2017 15:00:00 (BST)Achnagart, Gran Bretagna (99191): visibility: 17.05.2017 15:00:00 - 23.05.2017 15:00:00 (BST)Achnagart, Gran Bretagna (99191): precipitazioni: 17.05.2017 15:00:00 - 23.05.2017 15:00:00 (BST)
Data & Tempo tt [°C] td [°C] tt 5cm [°C] vv [km] rr [mm]
23.05.2017 15:00:00 13,3 6,8 - - 0,0
23.05.2017 14:00:00 14,7 7,5 - - 0,0
23.05.2017 13:00:00 15,3 7,9 - - 0,0
23.05.2017 12:00:00 13,5 7,5 - - 0,0
23.05.2017 11:00:00 13,4 8,2 - - 0,0
23.05.2017 10:00:00 11,9 9,8 11,9 - 0,0
23.05.2017 09:00:00 10,6 9,1 - - 0,2
23.05.2017 08:00:00 10,2 9,1 - - 0,2
23.05.2017 07:00:00 9,8 8,8 - - 0,2
23.05.2017 06:00:00 9,7 8,0 - - 0,2
23.05.2017 05:00:00 9,4 7,7 - - 0,0
23.05.2017 04:00:00 9,7 8,1 - - 0,0
23.05.2017 03:00:00 9,5 8,5 - - 0,2
23.05.2017 02:00:00 10,1 7,8 - - 0,0
23.05.2017 01:00:00 9,2 8,5 - - 0,0
23.05.2017 00:00:00 9,2 8,4 - - 0,2
22.05.2017 23:00:00 9,4 8,6 - - 0,6
22.05.2017 22:00:00 9,9 8,5 - - 1,2
22.05.2017 21:00:00 11,3 8,9 - - 0,0
22.05.2017 20:00:00 10,7 8,4 - - 0,0
22.05.2017 19:00:00 10,1 8,5 - - 1,2
22.05.2017 18:00:00 12,2 10,3 - - 3,4
22.05.2017 17:00:00 12,6 11,2 - - 1,4
22.05.2017 16:00:00 13,2 10,5 - - 1,0
22.05.2017 15:00:00 14,2 10,2 - - 0,2
22.05.2017 14:00:00 15,8 7,8 - - 0,0
22.05.2017 13:00:00 17,2 7,3 - - 0,0
22.05.2017 12:00:00 16,8 7,6 - - 0,0
22.05.2017 11:00:00 16,4 7,1 - - 0,0
22.05.2017 10:00:00 15,8 6,5 - 10 0,0
22.05.2017 09:00:00 14,8 6,2 - - 0,0
22.05.2017 08:00:00 14,9 6,3 - - 0,0
22.05.2017 07:00:00 14,4 6,3 - - 0,0
22.05.2017 06:00:00 14,6 5,8 - - 0,0
22.05.2017 05:00:00 14,8 6,1 - - 0,0
22.05.2017 04:00:00 14,6 6,3 - - 0,0
22.05.2017 03:00:00 14,4 6,3 - - 0,0
22.05.2017 02:00:00 13,7 5,8 - - 0,0
22.05.2017 01:00:00 13,5 6,9 - - 0,0
22.05.2017 00:00:00 13,6 6,6 - - 0,0
21.05.2017 23:00:00 13,8 5,9 - - 0,0
21.05.2017 22:00:00 13,8 5,5 - - 0,0
21.05.2017 21:00:00 13,8 7,1 - - 0,0
21.05.2017 20:00:00 13,8 8,9 - - 0,0
21.05.2017 19:00:00 13,6 8,8 - - 0,2
21.05.2017 18:00:00 14,6 7,9 - - 0,0
21.05.2017 17:00:00 15,9 8,8 - - 0,0
21.05.2017 16:00:00 14,7 8,4 - - 0,0
21.05.2017 15:00:00 13,3 8,1 - - 0,0
21.05.2017 14:00:00 12,4 6,9 - - 0,4
21.05.2017 13:00:00 11,9 7,2 - - 0,2
21.05.2017 12:00:00 12,4 6,0 - - 0,0
21.05.2017 11:00:00 12,7 6,5 - - 0,0
21.05.2017 10:00:00 12,0 6,0 12,0 - 0,0
21.05.2017 09:00:00 11,6 5,8 - - 0,0
21.05.2017 08:00:00 10,9 5,7 - - 0,0
21.05.2017 07:00:00 6,7 5,6 - - 0,0
21.05.2017 06:00:00 7,7 6,0 - - 0,0
21.05.2017 05:00:00 7,2 5,8 - - 0,0
21.05.2017 04:00:00 9,9 5,5 - - 0,6
21.05.2017 03:00:00 10,9 4,8 - - 0,0
21.05.2017 02:00:00 10,3 5,2 - - 0,0
21.05.2017 01:00:00 10,7 5,4 - - 0,0
21.05.2017 00:00:00 9,7 6,3 - - 0,0
20.05.2017 23:00:00 9,6 6,2 - - 0,6
20.05.2017 22:00:00 9,3 6,3 - - 1,8
20.05.2017 21:00:00 10,5 6,3 - - 0,0
20.05.2017 20:00:00 11,4 5,2 - - 0,0
20.05.2017 19:00:00 11,3 6,0 - - 0,0
20.05.2017 18:00:00 10,9 6,9 - - 0,0
20.05.2017 17:00:00 10,3 9,0 - - 0,8
20.05.2017 16:00:00 10,3 9,4 - - 1,4
20.05.2017 15:00:00 10,4 9,3 - - 0,6
20.05.2017 14:00:00 10,5 8,8 - - 0,2
20.05.2017 13:00:00 10,6 9,1 - - 0,4
20.05.2017 12:00:00 9,9 8,6 - - 0,6
20.05.2017 11:00:00 10,1 8,4 - - 0,6
20.05.2017 10:00:00 9,8 8,5 12,5 - 0,4
20.05.2017 09:00:00 9,7 8,6 - - 0,2
20.05.2017 08:00:00 9,4 8,9 - - 0,4
20.05.2017 07:00:00 8,8 8,5 - - 0,6
20.05.2017 06:00:00 8,5 8,0 - - 0,8
20.05.2017 05:00:00 8,9 7,8 - - 0,6
20.05.2017 04:00:00 9,3 7,8 - - 0,6
20.05.2017 03:00:00 9,5 7,8 - - 0,6
20.05.2017 02:00:00 10,2 7,6 - - 0,8
20.05.2017 01:00:00 10,0 8,2 - - 0,4
20.05.2017 00:00:00 10,9 7,9 - - 0,4
19.05.2017 23:00:00 12,4 7,2 - - 0,0
19.05.2017 22:00:00 10,6 6,6 - - 0,0
19.05.2017 21:00:00 11,9 6,8 - - 0,0
19.05.2017 20:00:00 13,2 6,1 - - 0,0
19.05.2017 19:00:00 14,4 6,0 - - 0,0
19.05.2017 18:00:00 15,4 5,8 - - 0,0
19.05.2017 17:00:00 16,4 4,5 - - 0,0
19.05.2017 16:00:00 17,5 5,3 - - 0,0
19.05.2017 15:00:00 16,7 4,8 - - 0,0
19.05.2017 14:00:00 16,5 4,7 - - 0,0
19.05.2017 13:00:00 15,4 5,1 - - 0,0
19.05.2017 12:00:00 14,6 5,0 - - 0,0
19.05.2017 11:00:00 14,2 6,0 - - 0,0
19.05.2017 10:00:00 12,2 6,1 12,2 - 0,0
19.05.2017 09:00:00 11,2 5,6 - - 0,0
19.05.2017 08:00:00 9,2 6,0 - - 0,0
19.05.2017 07:00:00 8,1 5,5 - - 0,0
19.05.2017 06:00:00 8,1 5,6 - - 0,0
19.05.2017 05:00:00 6,1 5,5 - - 0,0
19.05.2017 04:00:00 4,4 4,2 - - 0,0
19.05.2017 03:00:00 4,2 3,9 - - 0,0
19.05.2017 02:00:00 4,8 4,3 - - 0,0
19.05.2017 01:00:00 4,8 4,0 - - 0,0
19.05.2017 00:00:00 6,7 5,7 - - 0,0
18.05.2017 23:00:00 7,0 5,5 - - 0,0
18.05.2017 22:00:00 8,7 5,9 - - 0,0
18.05.2017 21:00:00 10,5 7,1 - - 0,0
18.05.2017 20:00:00 10,4 7,4 - - 0,0
18.05.2017 19:00:00 10,3 8,0 - - 0,2
18.05.2017 18:00:00 10,5 8,3 - - 0,8
18.05.2017 17:00:00 10,4 7,5 - - 1,0
18.05.2017 16:00:00 14,5 8,3 - - 0,2
18.05.2017 15:00:00 12,8 6,6 - - 0,2
18.05.2017 14:00:00 12,7 7,5 - - 1,2
18.05.2017 13:00:00 12,4 8,2 - - 0,8
18.05.2017 12:00:00 14,5 7,8 - - 0,0
18.05.2017 11:00:00 12,3 4,6 - 10 0,0
18.05.2017 10:00:00 11,8 5,6 - - 0,0
18.05.2017 09:00:00 10,8 5,8 - - 0,0
18.05.2017 08:00:00 9,1 5,5 - - 0,0
18.05.2017 07:00:00 6,1 6,1 - - 0,0
18.05.2017 06:00:00 2,8 2,7 - - 0,0
18.05.2017 05:00:00 2,3 1,9 - - 0,0
18.05.2017 04:00:00 3,5 3,1 - - 0,0
18.05.2017 03:00:00 4,3 3,7 - - 0,0
18.05.2017 02:00:00 5,0 4,3 - - 0,0
18.05.2017 01:00:00 5,9 5,2 - - 0,0
18.05.2017 00:00:00 6,3 4,8 - - 0,0
17.05.2017 23:00:00 7,4 5,4 - - 0,0
17.05.2017 22:00:00 9,2 5,4 - - 0,0
17.05.2017 21:00:00 11,7 5,1 - - 0,0
17.05.2017 20:00:00 12,2 4,7 - - 0,0
17.05.2017 19:00:00 11,9 7,9 - - 0,0
17.05.2017 18:00:00 13,6 6,0 - - 0,0
17.05.2017 17:00:00 12,5 8,0 - - 0,8
17.05.2017 16:00:00 12,8 7,8 - - 0,4
17.05.2017 15:00:00 13,4 7,6 - - 0,4

tt = Temperatura
td = dewpoint
tt 5cm = Temperatura 5cm
vv = visibility
rr = precipitazioni

Stazioni seguenti

WeatherPro
AMSI
MeteoEarth